This is the latest recevied weather packets stored in our database for station/object KE3HG-2. If no packets are shown the sender has not sent any weather packets the latest 1 day(s).
| Time | Temp. | Humidity | Pressure | Rain* | Wind** | Luminosity | Snow |
|---|---|---|---|---|---|---|---|
| 1778020496 | 26.11° C | 27% | 757.5 hPa | 0 mm | 1.34 m/s, 214° | - | - |
| 1778019588 | 26.67° C | 25% | 757.5 hPa | 0 mm | 2.24 m/s, 207° | - | - |
| 1778018988 | 26.67° C | 24% | 757.5 hPa | 0 mm | 1.34 m/s, 206° | - | - |
| 1778018388 | 26.67° C | 24% | 757.5 hPa | 0 mm | 3.58 m/s, 212° | - | - |
| 1778017479 | 26.67° C | 25% | 757.5 hPa | 0 mm | 2.24 m/s, 213° | - | - |
| 1778016878 | 26.67° C | 25% | 757.5 hPa | 0 mm | 2.68 m/s, 203° | - | - |
| 1778016279 | 27.22° C | 25% | 757.5 hPa | 0 mm | 3.13 m/s, 198° | - | - |
| 1778015360 | 27.22° C | 26% | 757.5 hPa | 0 mm | 2.68 m/s, 211° | - | - |
| 1778014760 | 27.22° C | 26% | 757.5 hPa | 0 mm | 2.24 m/s, 204° | - | - |
| 1778014160 | 27.78° C | 25% | 757.5 hPa | 0 mm | 2.68 m/s, 214° | - | - |
| 1778013243 | 27.22° C | 26% | 757.5 hPa | 0 mm | 2.24 m/s, 207° | - | - |
| 1778012643 | 27.22° C | 25% | 757.5 hPa | 0 mm | 2.68 m/s, 210° | - | - |
| 1778012043 | 27.22° C | 25% | 757.5 hPa | 0 mm | 2.24 m/s, 215° | - | - |
| 1778011116 | 27.22° C | 26% | 757.5 hPa | 0 mm | 1.34 m/s, 212° | - | - |
| 1778010516 | 27.22° C | 24% | 757.5 hPa | 0 mm | 2.24 m/s, 215° | - | - |
| 1778009916 | 27.22° C | 25% | 757.5 hPa | 0 mm | 2.68 m/s, 207° | - | - |
| 1778008991 | 27.22° C | 25% | 757.5 hPa | 0 mm | 2.24 m/s, 194° | - | - |
| 1778008391 | 27.78° C | 24% | 757.5 hPa | 0 mm | 2.24 m/s, 218° | - | - |
| 1778007791 | 27.78° C | 23% | 757.5 hPa | 0 mm | 1.34 m/s, 208° | - | - |
| 1778006943 | 28.33° C | 24% | 757.5 hPa | 0 mm | 2.68 m/s, 210° | - | - |
| 1778006343 | 28.33° C | 22% | 757.5 hPa | 0 mm | 2.24 m/s, 213° | - | - |
| 1778005743 | 28.89° C | 23% | 757.5 hPa | 0 mm | 1.79 m/s, 209° | - | - |
| 1778005142 | 28.33° C | 25% | 757.5 hPa | 0 mm | 1.34 m/s, 196° | - | - |
| 1778004542 | 28.33° C | 26% | 757.5 hPa | 0 mm | 1.34 m/s, 221° | - | - |
| 1778003942 | 28.33° C | 25% | 757.5 hPa | 0 mm | 1.79 m/s, 217° | - | - |
* Rain latest hour (hover to see other rain measurements)
** Current wind speed in m/s (hover to see current wind gust speed)